星链-36336(STARLINK-36336)

导读

STARLINK-36336是美国星链(Starlink)项目的卫星,于2026年2月21日发射,是 SpaceX 打造低轨卫星互联网星座的组成部分。星链旨在为全球提供高速低延迟宽带网络服务,该卫星入轨将进一步扩充星座规模,提升全球网络覆盖范围与服务能力。

Basic Information
目录编号:
67901
目录名称:
STARLINK-36336
国际标识:
2026-035Y
轨道中心:
EARTH
卫星名称:
星链-36336
卫星全名:
星链-36336(STARLINK-36336)
卫星状态:
在轨 (已飞行195 天)
发射日期:
2026-02-21 UTC
国别 :
美国 (US)
星等 :
--
Orbit Information
数据来源 国际轨道数据
星历时间: 2026-09-04T09:16:01+0800
11小时前
查看轨道信息
半长轴: 6843.624km
偏心率: 0.0001945
轨道倾角: 97.282°
近地点辐角 82.761°
升交点赤经 179.150°
平近点角 277.386°
近地点: 464.155km
远地点: 466.819km
周期: 93.905分钟
每日圈数: 15.334641
Detailed Information
固有亮度:
5
最大亮度:
2.5
卫星平台:
Starlink V1.0
覆盖范围:
全球
运营商:
太空探索技术公司
运营商所在国:
美国
制造商(研发单位):
太空探索技术公司
制造商所在国:
美国
使用方式:
暂无
Satellite Introduction
Starlink 计划是 SpaceX 推出的全球卫星互联网项目,通过发射低轨道卫星,为全球尤其是偏远地区提供高速、低延迟的互联网服务。自 2019 年起,Starlink 已部署数千颗卫星,旨在缩小全球数字鸿沟,推动互联网普及。该项目还为军事、航空等行业提供通信支持,带来广泛经济效益。
2D Orbit Map
3D Orbit Map
Orbit Altitude Analysis Chart
Orbit Inclination Analysis Chart
Orbit Comprehensive Analysis Chart
View Comprehensive Chart
Conjunction Data List
Event ID Objects TCA Miss Dist (km) Collision Risk Probability Collision Risk Index (CRI) Action
CDM_260905-105404-864306-790121
2026-09-05T
10:54:49+0000
2.780 km
极远距离
1.477337E-6 低风险 0.38